[[{"header":{"parameterUnit":"m.s-1","parameterCategory":1,"la1":30.2991,"la2":30.254,"lo1":-89.0895,"lo2":-89.0444,"dy":0.0017,"dx":0.0017,"nx":28,"ny":28,"refTime":"2024-03-24T21:00:00:Z","depth":0,"parameterNumber":2,"parameterNumberName":"U-component_of_WINDS"},"data":[0,0,0,0,0,0,0,0,0,0,0,0,0,0,0,0,0,0,0,0,0,0,0,0,0,0,0,0,0,0,0,0,0,0,0,0,0,0,0,0,0,0,0,0,0,0,0,0,0,0,0,0,0,0,0,0,0,0,-3.4606,-3.4608,0,-3.4762,-3.4764,-3.4766,-3.4821,-3.482,-3.482,-3.4819,-3.4984,-3.4989,-3.4994,0,0,0,0,0,0,0,0,0,0,0,0,0,-3.436,-3.4364,-3.4606,-3.4608,-3.461,-3.4762,-3.4764,-3.4766,-3.4821,-3.482,-3.482,-3.4819,-3.4983,-3.4988,-3.4994,0,0,0,0,0,0,0,0,0,0,0,0,0,-3.4486,-3.4365,-3.4606,-3.4655,-3.4661,-3.4762,-3.4764,-3.4767,-3.4821,-3.482,-3.4819,-3.4819,-3.4981,-3.4988,-3.4995,-3.5059,0,0,-3.5018,-3.5021,0,0,0,0,0,0,0,0,-3.4479,-3.4495,-3.4646,-3.4652,-3.4659,-3.4771,-3.4738,-3.4865,-3.4821,-3.4761,-3.4819,-3.4818,-3.4914,-3.4927,-3.4959,-3.5067,-3.5074,-3.5018,-3.5023,-3.5026,-3.5028,0,0,0,0,0,0,0,-3.447,-3.4489,-3.4668,-3.4648,-3.4656,-3.4671,-3.4688,-3.4762,-3.4841,-3.4766,-3.477,-3.4788,-3.4918,-3.4951,-3.4963,-3.5076,-3.5018,-3.5025,-3.5029,-3.5032,-3.5245,-3.5246,0,0,0,0,0,0,-3.4452,-3.4481,-3.4663,-3.4673,-3.4565,-3.4677,-3.4696,-3.4736,-3.484,-3.4855,-3.4788,-3.479,-3.4939,-3.4954,-3.4969,-3.505,-3.5026,-3.5033,-3.5037,-3.5243,-3.5245,-3.5246,0,0,0,0,0,0,-3.4447,-3.4468,-3.4657,-3.4578,-3.4603,-3.4682,-3.4727,-3.474,-3.4773,-3.4857,-3.4872,-3.4808,-3.4939,-3.4958,-3.5036,-3.5057,-3.5036,-3.5043,-3.5242,-3.5244,-3.5245,-3.5213,0,0,0,0,0,0,-3.444,-3.4466,-3.449,-3.4578,-3.4607,-3.4719,-3.4728,-3.4743,-3.4785,-3.4789,-3.4879,-3.4893,-3.494,-3.5024,-3.5043,-3.5066,-3.5049,-3.5241,-3.5243,-3.5245,-3.5212,-3.5213,-3.5214,0,0,0,0,0,-3.4431,-3.4475,-3.4491,-3.4512,-3.4639,-3.472,-3.4737,-3.4788,-3.4787,-3.4812,-3.4866,-3.4891,-3.5051,-3.5032,-3.5053,-3.5079,-3.5239,-3.5242,-3.5245,-3.5212,-3.5213,-3.5214,0,0,0,0,0,0,-3.4389,-3.4488,-3.4506,-3.458,-3.4641,-3.4729,-3.4763,-3.4788,-3.4852,-3.4852,-3.4915,-3.4935,-3.5007,-3.5051,-3.5028,-3.5147,-3.5147,-3.5154,-3.5115,-3.5116,-3.5117,-3.5105,-3.5055,0,0,0,0,0,-3.4388,-3.4445,-3.4529,-3.4587,-3.4616,-3.4684,-3.4722,-3.4755,-3.4822,-3.4849,-3.4908,-3.4973,-3.5038,-3.508,-3.5145,-3.5219,-3.524,-3.5248,-3.5249,-3.5249,-3.5254,-3.5297,-3.5301,-3.5255,-3.5255,-3.5255,0,0,-3.4388,-3.4449,-3.4481,-3.458,-3.4631,-3.4689,-3.4706,-3.4767,-3.4811,-3.4859,-3.4934,-3.498,-3.5057,-3.5133,-3.517,-3.5172,-3.5272,-3.5252,-3.5252,-3.5257,-3.53,-3.5304,-3.5308,-3.5257,-3.5256,-3.5256,0,0,-3.4416,-3.4468,-3.4521,-3.4572,-3.4649,-3.4694,-3.4706,-3.4791,-3.4823,-3.49,-3.4936,-3.4991,-3.5102,-3.5155,-3.5196,-3.5245,-3.527,-3.5264,-3.5268,-3.5309,-3.5313,-3.5316,-3.5333,-3.5338,-3.5269,-3.5269,-3.5269,0,-3.4407,-3.4494,-3.4546,-3.4605,-3.4648,-3.4692,-3.4747,-3.4794,-3.4889,-3.4918,-3.4919,-3.5059,-3.5114,-3.5202,-3.5214,-3.5246,-3.5263,-3.5254,-3.5308,-3.5312,-3.5316,-3.5333,-3.5339,-3.5268,-3.5268,-3.5268,-3.5268,0,-3.4478,-3.4539,-3.4573,-3.4661,-3.4708,-3.4764,-3.4826,-3.4868,-3.4897,-3.4942,-3.5021,-3.5088,-3.5166,-3.519,-3.5221,-3.5284,-3.5283,-3.5295,-3.5297,-3.5318,-3.5335,-3.5342,-3.5266,-3.5267,-3.5267,-3.5267,0,0,-3.4485,-3.46,-3.4612,-3.4652,-3.474,-3.4788,-3.4848,-3.4923,-3.4957,-3.5021,-3.5073,-3.5166,-3.5177,-3.5224,-3.5262,-3.5297,-3.5331,-3.5306,-3.5308,-3.5307,-3.5404,-3.5393,-3.54,-3.5348,-3.535,-3.5351,-3.5397,0,-3.4525,-3.463,-3.4679,-3.4763,-3.482,-3.4862,-3.4914,-3.4974,-3.5018,-3.5074,-3.5124,-3.5188,-3.5199,-3.5227,-3.5264,-3.5319,-3.5351,-3.5316,-3.5398,-3.54,-3.5376,-3.5409,-3.5399,-3.5439,-3.5404,-3.5405,-3.5406,0,-3.4585,-3.4647,-3.4736,-3.4816,-3.4842,-3.4887,-3.496,-3.5013,-3.5082,-3.5112,-3.5164,-3.5199,-3.5265,-3.5262,-3.5353,-3.5328,-3.5365,-3.5397,-3.54,-3.5409,-3.5404,-3.5419,-3.5453,-3.5459,-3.5417,-3.5416,-3.5416,0,-3.458,-3.4686,-3.4753,-3.4786,-3.4882,-3.4913,-3.4954,-3.5023,-3.5065,-3.5129,-3.5157,-3.5229,-3.5268,-3.5324,-3.5378,-3.5371,-3.5464,-3.5466,-3.5491,-3.549,-3.5509,-3.5507,-3.5549,-3.5533,-3.5533,-3.5533,-3.5533,0,-3.4619,-3.4672,-3.4752,-3.4793,-3.4854,-3.491,-3.4969,-3.5014,-3.5075,-3.5127,-3.5169,-3.5217,-3.5286,-3.5343,-3.5387,-3.5455,-3.5473,-3.55,-3.551,-3.5496,-3.5492,-3.552,-3.5518,-3.5534,-3.5534,-3.5534,-3.5533,0,-3.4624,-3.468,-3.4755,-3.4839,-3.4861,-3.4902,-3.4975,-3.5017,-3.5063,-3.5128,-3.5146,-3.5219,-3.5288,-3.5348,-3.544,-3.547,-3.5541,-3.5554,-3.5516,-3.5522,-3.5543,-3.554,-3.5605,-3.5616,-3.5592,-3.5592,-3.5592,0,-3.4645,-3.4687,-3.4774,-3.481,-3.4851,-3.491,-3.4952,-3.5009,-3.5052,-3.5134,-3.5166,-3.5238,-3.5299,-3.5408,-3.547,-3.5541,-3.5556,-3.5574,-3.5567,-3.5551,-3.5556,-3.5553,-3.5557,-3.5574,-3.5574,-3.5574,-3.5574,0,-3.4676,-3.4701,-3.476,-3.4828,-3.4877,-3.4934,-3.4992,-3.502,-3.5088,-3.5135,-3.5205,-3.5251,-3.5345,-3.5416,-3.5493,-3.5538,-3.5568,-3.5575,-3.5585,-3.557,-3.5546,-3.5559,-3.5516,-3.5574,-3.5574,-3.5574,-3.5574,-3.5574,-3.469,-3.4728,-3.4795,-3.4859,-3.4908,-3.4962,-3.5005,-3.5055,-3.5114,-3.5193,-3.5224,-3.5295,-3.5365,-3.5471,-3.5516,-3.5574,-3.5579,-3.5593,-3.5596,-3.5599,-3.5596,-3.5537,-3.5589,-3.5589,-3.5589,-3.5589,-3.5589,0,-3.4723,-3.4768,-3.4826,-3.4905,-3.4955,-3.4976,-3.5042,-3.5083,-3.5145,-3.5206,-3.5264,-3.5345,-3.5414,-3.5481,-3.5554,-3.5587,-3.5603,-3.5605,-3.5603,-3.5613,-3.5588,-3.5572,-3.5591,-3.5591,-3.5591,-3.5591,-3.5591,-3.5591,-3.4746,-3.4812,-3.4845,-3.4936,-3.4981,-3.505,-3.5085,-3.5135,-3.5184,-3.5271,-3.5328,-3.537,-3.5434,-3.5512,-3.5577,-3.5595,-3.562,-3.5618,-3.564,-3.5615,-3.5614,-3.5613,-3.5599,-3.5623,-3.5623,-3.566,-3.566,-3.566]},{"header":{"parameterUnit":"m.s-1","parameterCategory":1,"la1":30.2991,"la2":30.254,"lo1":-89.0895,"lo2":-89.0444,"dy":0.0017,"dx":0.0017,"nx":28,"ny":28,"refTime":"2024-03-24T21:00:00:Z","depth":0,"parameterNumber":3,"parameterNumberName":"V-component_of_WINDS"},"data":[0,0,0,0,0,0,0,0,0,0,0,0,0,0,0,0,0,0,0,0,0,0,0,0,0,0,0,0,0,0,0,0,0,0,0,0,0,0,0,0,0,0,0,0,0,0,0,0,0,0,0,0,0,0,0,0,0,0,7.1745,7.1745,0,7.1797,7.1798,7.1799,7.1771,7.177,7.1769,7.1767,7.1823,7.1825,7.1828,0,0,0,0,0,0,0,0,0,0,0,0,0,7.1623,7.1625,7.1745,7.1745,7.1746,7.1797,7.1798,7.1799,7.1772,7.177,7.1768,7.1767,7.1822,7.1825,7.1828,0,0,0,0,0,0,0,0,0,0,0,0,0,7.1676,7.1626,7.1745,7.1739,7.1739,7.1797,7.1798,7.1799,7.1772,7.177,7.1768,7.1766,7.1821,7.1825,7.1829,7.1897,0,0,7.1841,7.1843,0,0,0,0,0,0,0,0,7.1673,7.168,7.1739,7.1739,7.1739,7.1776,7.1775,7.1832,7.1773,7.1759,7.1767,7.1765,7.1809,7.1814,7.1828,7.1899,7.1901,7.1842,7.1844,7.1846,7.1847,0,0,0,0,0,0,0,7.1669,7.1678,7.1766,7.174,7.174,7.1734,7.1739,7.1786,7.1795,7.176,7.1759,7.1765,7.1808,7.1824,7.1829,7.1902,7.1842,7.1845,7.1848,7.185,7.2034,7.2037,0,0,0,0,0,0,7.1665,7.1675,7.1764,7.1767,7.17,7.1738,7.1744,7.1766,7.1795,7.1797,7.1767,7.1764,7.1818,7.1825,7.1831,7.1914,7.1846,7.185,7.1852,7.2032,7.2035,7.2038,0,0,0,0,0,0,7.1663,7.1674,7.1762,7.1721,7.1731,7.1742,7.1768,7.1768,7.1784,7.18,7.1801,7.1781,7.1817,7.1825,7.1881,7.1916,7.1852,7.1856,7.2029,7.2033,7.2036,7.208,0,0,0,0,0,0,7.166,7.1673,7.1698,7.1721,7.1734,7.181,7.177,7.1771,7.1791,7.1788,7.1813,7.1816,7.1816,7.1875,7.1885,7.192,7.1859,7.2026,7.2031,7.2035,7.2075,7.2084,7.2092,0,0,0,0,0,7.1655,7.1708,7.1699,7.171,7.1765,7.1812,7.1819,7.1818,7.1794,7.182,7.183,7.1815,7.191,7.1881,7.1892,7.1929,7.2024,7.203,7.2035,7.2071,7.2083,7.2092,0,0,0,0,0,0,7.1688,7.1711,7.1702,7.1763,7.1786,7.1807,7.184,7.1829,7.1859,7.1855,7.1852,7.1858,7.1917,7.1928,7.1895,7.1998,7.1964,7.1972,7.1988,7.1998,7.2007,7.2003,7.1862,0,0,0,0,0,7.1702,7.1738,7.1756,7.1809,7.1821,7.1828,7.1849,7.1846,7.1869,7.1879,7.1893,7.1917,7.1953,7.1976,7.201,7.2077,7.2083,7.2108,7.2117,7.2124,7.2131,7.2169,7.2181,7.2055,7.2055,7.2055,0,0,7.1732,7.1749,7.1772,7.1816,7.1833,7.1871,7.1837,7.1877,7.1906,7.1885,7.1939,7.1951,7.1977,7.204,7.2068,7.2052,7.2167,7.213,7.2136,7.2139,7.2176,7.2188,7.2199,7.2059,7.2058,7.2058,0,0,7.1806,7.1822,7.1869,7.1887,7.1914,7.1919,7.1931,7.1954,7.1961,7.2015,7.2001,7.2036,7.2096,7.2117,7.2135,7.222,7.2208,7.2231,7.2275,7.2313,7.2323,7.2332,7.2364,7.2375,7.2238,7.2238,7.2238,0,7.184,7.1896,7.1894,7.1937,7.1958,7.1941,7.1989,7.2007,7.2044,7.2059,7.204,7.2117,7.2134,7.2202,7.2223,7.2238,7.2252,7.2228,7.2322,7.2331,7.2339,7.2369,7.2381,7.2241,7.224,7.224,7.224,0,7.1938,7.1977,7.2011,7.2048,7.2072,7.2117,7.2123,7.2148,7.2144,7.2152,7.2209,7.2228,7.2267,7.2282,7.2278,7.2351,7.234,7.2321,7.2287,7.2354,7.2382,7.2394,7.2245,7.2244,7.2243,7.2242,0,0,7.2033,7.2069,7.2082,7.2099,7.2128,7.2159,7.2205,7.2242,7.2265,7.2291,7.233,7.2383,7.2367,7.2388,7.2386,7.2419,7.2488,7.2397,7.2397,7.2414,7.2571,7.2585,7.2599,7.248,7.2482,7.2483,7.2569,0,7.211,7.2189,7.2189,7.2263,7.23,7.2286,7.2326,7.2349,7.2358,7.2392,7.2402,7.244,7.2415,7.2428,7.246,7.2472,7.2519,7.2466,7.2517,7.2519,7.2511,7.2613,7.2628,7.2708,7.258,7.2582,7.2583,0,7.2211,7.2241,7.2318,7.2344,7.236,7.2396,7.2431,7.2463,7.249,7.2494,7.2519,7.2513,7.2561,7.2526,7.2593,7.2557,7.2578,7.2587,7.259,7.2596,7.2555,7.2622,7.2733,7.2746,7.2601,7.2599,7.2598,0,7.2274,7.2334,7.2389,7.2404,7.2435,7.2461,7.2475,7.25,7.2523,7.2555,7.257,7.2607,7.2627,7.2656,7.2661,7.2635,7.2729,7.2694,7.2736,7.2736,7.2756,7.2755,7.2873,7.2769,7.2769,7.2768,7.2768,0,7.2361,7.2409,7.2418,7.2452,7.2506,7.2506,7.256,7.2573,7.2595,7.2632,7.2622,7.2657,7.2661,7.2697,7.2702,7.2758,7.2767,7.2773,7.2773,7.2774,7.2774,7.2788,7.2783,7.2771,7.2771,7.277,7.277,0,7.2441,7.2449,7.2508,7.2533,7.2541,7.258,7.2602,7.2635,7.2644,7.2691,7.2702,7.2715,7.2758,7.2766,7.2816,7.2819,7.2887,7.2881,7.2877,7.2877,7.2919,7.2916,7.3052,7.307,7.2952,7.2954,7.2954,0,7.2497,7.2534,7.2563,7.2587,7.2603,7.2642,7.2666,7.2668,7.2694,7.2729,7.2758,7.2799,7.2833,7.2902,7.2918,7.2957,7.2953,7.2998,7.2958,7.2959,7.2955,7.2953,7.2958,7.3005,7.3007,7.3008,7.3009,0,7.2595,7.2597,7.2632,7.2669,7.2698,7.2727,7.2755,7.2775,7.2782,7.2811,7.2855,7.2881,7.2933,7.2975,7.3014,7.303,7.3022,7.3021,7.3033,7.3034,7.3031,7.3035,7.2899,7.3018,7.3017,7.3016,7.3016,7.3015,7.2665,7.2698,7.2725,7.2765,7.2786,7.2812,7.2845,7.2858,7.2894,7.2937,7.2936,7.2985,7.3013,7.3065,7.3084,7.3122,7.3108,7.3125,7.313,7.3134,7.3139,7.3025,7.3129,7.3129,7.3129,7.3129,7.3129,0,7.2764,7.2781,7.2818,7.2857,7.2889,7.2877,7.2908,7.2935,7.2978,7.3004,7.3038,7.3089,7.3131,7.315,7.3191,7.3219,7.3216,7.323,7.3228,7.3232,7.3148,7.3134,7.3231,7.3231,7.3231,7.3231,7.3231,7.3231,7.282,7.2875,7.2881,7.2948,7.2965,7.3012,7.3031,7.3056,7.3077,7.3135,7.3169,7.3181,7.3206,7.3249,7.3287,7.3292,7.3308,7.3324,7.3327,7.3248,7.3238,7.3228,7.3215,7.3327,7.3328,7.3408,7.3409,7.3409]}]]